Location: Agadir Mansour Mhndou
(31.2424°N, 8.7730°W)
Time: 20:05:24
(UTC+00:00)

H-2A R/B - Pass Details

Date: 16 October 2021
Orbit: 578 x 653 km, 98.5° (Epoch: 07 December)

Event Time Altitude Azimuth Distance (km) Brightness Sun altitude
Rises 19:54:22 0° 1° (N) 2,797 5.5 -24.8°
Reaches altitude 10° 19:56:39 10° 352° (N) 1,899 4.7 -25.2°
Maximum altitude 20:00:22 34° 287° (WNW) 978 3.6 -26.0°
Drops below altitude 10° 20:04:06 10° 223° (SW) 1,913 5.0 -26.8°
Sets 20:06:24 0° 213° (SSW) 2,822 5.8 -27.3°
